Regional Weather Roundup
Issued by NWS Albany, NY

Home | Current Version | Previous Version | Graphics & Text | Print | Product List | Glossary On
Versions: 1 2 3 4 5 6 7 8 9 10 11 12 13 14 15 16 17 18 19 20 21 22 23 24 25 26 27 28 29 30 31 32 33 34 35 36 37 38 39 40 41 42 43 44 45 46 47 48 49 50
000
ASUS41 KALY 150610
RWRALY

NEW YORK STATE HOURLY WEATHER ROUNDUP
NATIONAL WEATHER SERVICE ALBANY NY
200 AM EDT MON SEP 15 2014

NOTE: "FAIR" INDICATES FEW OR NO CLOUDS BELOW 12,000 FEET WITH NO
SIGNIFICANT WEATHER AND/OR NO OBSTRUCTIONS TO VISIBILITY.

NYZ032-033-038>043-046>054-057>066-NYZ062>081-150700-
EAST


CITY           SKY/WX    TMP DP  RH WIND       PRES   REMARKS
ALBANY         MOCLDY    45  42  89 CALM      30.24S
GLENS FALLS    CLOUDY    48  44  86 CALM      30.24S
POUGHKEEPSIE   CLEAR     44  42  93 CALM      30.23R
MONTGOMERY     CLEAR     43  41  93 CALM      30.23R
WHITE PLAINS   CLEAR     52  43  71 N5        30.19S
ISLIP          MOCLDY    54  48  80 CALM      30.18S
NEW YORK CITY  PTCLDY    60  48  64 N8        30.19R
CENTRAL PARK   CLEAR     59  46  62 CALM      30.22R
$$

NYZ005>009-017-018-044>046-055-056-150700-
CENTRAL


CITY           SKY/WX    TMP DP  RH WIND       PRES   REMARKS
FULTON         PTCLDY    45  41  86 S3        30.23S
SYRACUSE       MOCLDY    49  45  86 SE6       30.23S
ROME           CLOUDY    43  42  97 SE3       30.26R
ELMIRA         CLOUDY    50  49  96 CALM      30.24S
BINGHAMTON     CLOUDY    48  44  86 N5        30.23R
MONTICELLO     CLEAR     43  43 100 CALM      30.24S
$$

NYZ026>034-041>043-150700-
NORTH


CITY           SKY/WX    TMP DP  RH WIND       PRES   REMARKS
WATERTOWN      CLOUDY    44  39  82 SE5       30.22F
FORT DRUM      NOT AVBL
MASSENA        CLOUDY    41  40  96 S5        30.23F
SARANAC LAKE   FOG       35  35 100 CALM      30.20F VSB<1/4
PLATTSBURGH    CLEAR     36  35  96 CALM      30.23F
$$

NYZ001>004-010>016-019>021-150700-
WEST


CITY           SKY/WX    TMP DP  RH WIND       PRES   REMARKS
NIAGARA FALLS  CLOUDY    50  47  89 CALM      30.21S
BUFFALO        CLOUDY    53  46  77 S5        30.22R
DUNKIRK        CLOUDY    53  46  77 SW6       30.22S
JAMESTOWN      CLOUDY    48  45  87 CALM      30.23S
WELLSVILLE     CLOUDY    47  44  90 CALM      30.24S
ROCHESTER      MOCLDY    51  45  79 CALM      30.23S
PENN YAN       CLOUDY    51  46  83 S3        30.24S
$$

             KEY
       WCI = WIND CHILL INDEX
       VSB = VISIBILITY
       HX  = HEAT INDEX
$$



USA.gov is the U.S. government's official web portal to all federal, state and local government web resources and services.